{"data":{"norad_id":57782,"intl_designator":"2023-134M","name":"STARLINK-30376","alt_names":[],"object_type":"PAYLOAD","status":"ACTIVE","operator":null,"country":"US","launch_date":"2023-09-04","launch_site_code":"AFETR","launch_vehicle":null,"mission":null,"orbit_class":"UNKNOWN","rcs_meters":null,"size_class":null,"mass_kg":null,"dimensions":null,"purposes":["comms"],"wikipedia_slug":null,"has_3d_model":false,"image_url":null,"decayed_at":null,"tle_current":{"epoch":"2026-09-20T04:10:43.645728Z","epoch_age_seconds":159462,"freshness":"FRESH","line1":"1 57782U 23134M   26263.17411627 -.00000022  00000+0  87301-5 0  9998","line2":"2 57782  42.9983 175.8912 0000774 278.3895  81.6869 15.27575514169252","mean_motion":15.27575514,"eccentricity":7.74e-5,"inclination_deg":42.9983,"raan_deg":175.8912,"arg_perigee_deg":278.3895,"mean_anomaly_deg":81.6869,"bstar":8.7301e-6,"rev_number":16925,"period_min":94.267025544899,"perigee_km":482.53147192683,"apogee_km":483.59358561388,"semimajor_km":6861.1995287704,"source":"CELESTRAK","updated_at":"2026-09-21T09:00:33.704364Z"}}}